CAPE
0 0 1 0 0 1 1 0 0 0 0 0 1 0 0 0 0 0 0 0 0 0 0 0 0 0 0 0 0 0 0 0 0 3 0 0 0 0 0 0 0 0 0
0 0 1 0 1 1 1 1 0 0 0 0 0 1 1 0 0 0 0 0 0 0 1 0 0 0 1 1 0 0 0 0 0 0 0 0 0 0 0 0 0 0 0
0 1 1 1 1 2 2 1 1 0 0 1 1 1 1 1 1 1 1 1 0 3 1 1 1 0 1 1 0 0 0 0 0 0 0 0 0 0 0 0 0 0 0
0 0 1 2 2 2 2 2 1 1 1 1 1 2 1 2 2 1 1 1 2 1 0 0 0 0 0 0 0 0 0 0 0 0 0 0 0 0 0 0 0 0 0
0 0 2 1 1 1 1 1 1 1 1 1 1 1 1 0 1 0 0 0 0 0 0 0 0 0 0 0 0 0 0 0 0 0 0 0 0 0 0 0 0 0 0
0 0 0 0 0 0 1 1 1 1 1 1 2 2 3 1 1 0 0 0 0 0 0 0 0 0 0 0 0 0 0 0 0 0 0 0 0 0 0 0 0 0 0
0 0 0 0 0 0 0 0 1 1 1 2 2 2 2 1 0 0 0 0 0 0 0 0 0 0 0 0 0 0 0 0 0 0 0 0 0 0 0 0 0 0 0
0 0 0 0 0 0 0 0 0 0 0 0 1 1 0 0 0 0 0 0 0 0 0 0 0 0 0 0 0 0 0 0 0 0 0 0 0 0 0 0 0 0 0
0 0 0 0 0 0 0 0 0 0 0 0 0 0 0 0 0 0 0 0 0 0 0 0 0 0 0 0 0 0 0 0 0 1 1 1 1 1 0 0 0 0 0
0 0 0 0 0 0 0 0 0 0 0 0 0 0 0 0 0 0 0 0 0 0 0 0 0 0 0 0 0 0 0 0 0 1 1 0 0 0 0 0 0 0 0
0 0 0 0 0 0 0 0 0 0 0 0 0 0 0 0 0 0 0 0 0 0 0 0 0 0 0 0 0 0 0 0 1 0 0 1 0 0 0 0 0 0 0
0 0 0 0 0 0 0 0 0 0 0 0 0 0 0 0 0 0 0 0 0 0 0 0 0 1 1 0 0 1 2 1 0 0 0 0 0 0 0 0 0 0 0
0 0 0 0 0 0 0 0 0 0 0 0 0 0 0 0 0 0 0 0 0 0 0 0 1 2 1 1 1 2 2 0 0 0 0 0 0 0 0 0 0 0 0
0 0 0 0 0 0 0 0 0 0 0 0 0 0 0 0 0 0 0 0 0 0 0 0 1 0 0 0 1 1 0 0 0 0 0 0 0 0 0 0 0 0 0
0 0 0 0 0 0 0 0 0 0 0 0 0 0 0 0 0 0 0 0 0 0 0 0 0 0 0 0 0 0 0 0 0 0 0 0 0 0 0 0 0 0 0
0 0 0 0 0 0 0 0 0 0 0 0 0 0 0 0 0 0 0 0 0 0 0 0 0 0 0 0 0 0 0 0 0 0 0 0 0 0 0 0 0 0 0
0 0 0 0 0 0 0 0 0 0 0 0 0 0 0 0 0 0 0 0 0 1 0 0 0 0 0 0 0 0 0 0 0 0 0 0 0 0 0 0 0 0 0
0 0 0 0 0 0 0 0 0 0 0 0 0 0 0 0 0 0 0 0 0 1 0 0 0 0 0 0 0 0 0 0 0 0 0 0 0 0 0 0 0 0 0
0 0 0 0 0 0 0 0 0 0 0 0 0 0 0 1 1 1 0 0 0 0 0 0 0 0 0 0 0 0 0 0 0 0 0 0 0 0 0 0 0 0 0
0 0 0 0 0 0 0 0 0 0 0 0 0 0 0 0 0 0 1 1 0 0 0 0 0 0 0 0 0 0 0 0 0 0 0 0 0 0 0 0 0 0 0
0 0 0 0 0 0 0 0 0 0 0 0 0 0 0 0 0 0 0 0 0 0 0 0 0 0 0 0 0 0 0 0 0 0 0 0 0 0 0 0 0 0 0
0 0 0 0 0 0 0 0 0 0 0 0 0 0 0 0 0 0 0 0 0 0 0 0 0 0 0 0 0 0 0 0 0 0 0 0 0 0 0 0 0 0 0
0 0 0 0 0 0 0 0 0 0 0 0 0 0 0 0 0 0 0 0 0 0 0 0 0 0 0 0 0 0 0 0 0 0 0 0 0 0 0 0 0 0 0
0 0 0 0 0 0 0 0 0 0 0 0 0 0 0 0 0 0 0 0 0 0 0 0 0 0 0 0 0 0 0 0 0 0 0 0 0 0 0 0 0 0 0
0 0 0 0 0 0 0 0 0 0 0 0 0 0 1 1 0 0 0 0 0 0 0 0 0 0 0 0 0 0 0 0 0 0 0 0 0 0 0 0 0 0 0
0 0 0 0 0 0 0 0 0 0 0 0 0 1 0 0 0 0 0 0 0 0 0 0 0 0 0 0 0 0 0 0 0 0 0 0 0 0 0 0 0 0 0
CIN
0 0 0 0 0 0 0 0 0 0 0 0 0 0 0 0 0 0 0 0 0 0 0 0 0 0 0 0 0 0 0 0 0 0 0 0 0 0 0 0 0 0 0
0 0 0 0 0 0 0 0 0 0 0 0 0 0 0 0 0 0 0 0 0 0 0 0 0 0 0 0 0 0 0 0 0 0 0 0 0 0 0 0 0 0 0
0 0 0 0 0 0 0 0 0 0 0 0 0 0 0 0 0 0 0 0 0 0 0 0 0 0 0 0 0 0 0 0 0 0 0 0 0 0 0 0 0 0 0
0 0 0 0 0 0 0 0 0 0 0 0 0 0 0 0 0 0 0 0 0 0 0 0 0 0 0 0 0 0 0 0 0 0 0 0 0 0 0 0 0 0 0
0 0 0 0 0 0 0 0 0 0 0 0 0 0 0 0 0 0 0 0 0 0 0 0 0 0 0 0 0 0 0 0 0 0 0 0 0 0 0 0 0 0 0
0 0 0 0 0 0 0 0 0 0 0 0 0 0 0 0 0 0 0 0 0 0 0 0 0 0 0 0 0 0 0 0 0 0 0 0 0 0 0 0 0 0 0
0 0 0 0 0 0 0 0 0 0 0 0 0 0 0 0 0 0 0 0 0 0 0 0 0 0 0 0 0 0 0 0 0 0 0 0 0 0 0 0 0 0 0
0 0 0 0 0 0 0 0 0 0 0 0 0 0 0 0 0 0 0 0 0 0 0 0 0 0 0 0 0 0 0 0 0 0 0 0 0 0 0 0 0 0 0
0 0 0 0 0 0 0 0 0 0 0 0 0 0 0 0 0 0 0 0 0 0 0 0 0 0 0 0 0 0 0 0 0 0 0 0 0 0 0 0 0 0 0
0 0 0 0 0 0 0 0 0 0 0 0 0 0 0 0 0 0 0 0 0 0 0 0 0 0 0 0 0 0 0 0 0 0 0 0 0 0 0 0 0 0 0
0 0 0 0 0 0 0 0 0 0 0 0 0 0 0 0 0 0 0 0 0 0 0 0 0 0 0 0 0 0 0 0 0 0 0 0 0 0 0 0 0 0 0
0 0 0 0 0 0 0 0 0 0 0 0 0 0 0 0 0 0 0 0 0 0 0 0 0 0 0 0 0 0 0 0 0 0 0 0 0 0 0 0 0 0 0
0 0 0 0 0 0 0 0 0 0 0 0 0 0 0 0 0 0 0 0 0 0 0 0 0 0 0 0 0 0 0 0 0 0 0 0 0 0 0 0 0 0 0
0 0 0 0 0 0 0 0 0 0 0 0 0 0 0 0 0 0 0 0 0 0 0 0 0 0 0 0 0 0 0 0 0 0 0 0 0 0 0 0 0 0 0
0 0 0 0 0 0 0 0 0 0 0 0 0 0 0 0 0 0 0 0 0 0 0 0 0 0 0 0 0 0 0 0 0 0 0 0 0 0 0 0 0 0 0
0 0 0 0 0 0 0 0 0 0 0 0 0 0 0 0 0 0 0 0 0 0 0 0 0 0 0 0 0 0 0 0 0 0 0 0 0 0 0 0 0 0 0
0 0 0 0 0 0 0 0 0 0 0 0 0 0 0 0 0 0 0 0 0 0 0 0 0 0 0 0 0 0 0 0 0 0 0 0 0 0 0 0 0 0 0
0 0 0 0 0 0 0 0 0 0 0 0 0 0 0 0 0 0 0 0 0 0 0 0 0 0 0 0 0 0 0 0 0 0 0 0 0 0 0 0 0 0 0
0 0 0 0 0 0 0 0 0 0 0 0 0 0 0 0 0 0 0 0 0 0 0 0 0 0 0 0 0 0 0 0 0 0 0 0 0 0 0 0 0 0 0
0 0 0 0 0 0 0 0 0 0 0 0 0 0 0 0 0 0 0 0 0 0 0 0 0 0 0 0 0 0 0 0 0 0 0 0 0 0 0 0 0 0 0
0 0 0 0 0 0 0 0 0 0 0 0 0 0 0 0 0 0 0 0 0 0 0 0 0 0 0 0 0 0 0 0 0 0 0 0 0 0 0 0 0 0 0
0 0 0 0 0 0 0 0 0 0 0 0 0 0 0 0 0 0 0 0 0 0 0 0 0 0 0 0 0 0 0 0 0 0 0 0 0 0 0 0 0 0 0
0 0 0 0 0 0 0 0 0 0 0 0 0 0 0 0 0 0 0 0 0 0 0 0 0 0 0 0 0 0 0 0 0 0 0 0 0 0 0 0 0 0 0
0 0 0 0 0 0 0 0 0 0 0 0 0 0 0 0 0 0 0 0 0 0 0 0 0 0 0 0 0 0 0 0 0 0 0 0 0 0 0 0 0 0 0
0 0 0 0 0 0 0 0 0 0 0 0 0 0 0 0 0 0 0 0 0 0 0 0 0 0 0 0 0 0 0 0 0 0 0 0 0 0 0 0 0 0 0
0 0 0 0 0 0 0 0 0 0 0 0 0 0 0 0 0 0 0 0 0 0 0 0 0 0 0 0 0 0 0 0 0 0 0 0 0 0 0 0 0 0 0
Wind_Speed
22 21 21 21 22 22 21 22 22 23 24 24 25 25 24 20 18 17 18 20 19 19 18 19 19 18 18 17 15 16 17 18 18 16 17 19 20 21 22 24 24 29 29
22 21 21 20 20 21 21 22 22 21 21 21 21 20 18 17 17 15 16 16 16 17 16 16 14 16 16 14 15 15 16 17 16 16 16 17 18 20 20 23 24 28 30
21 21 20 20 20 20 20 19 18 17 17 17 16 15 15 15 14 14 13 14 14 16 16 15 16 16 16 16 16 15 16 16 15 14 14 17 17 21 21 22 23 26 30
18 20 20 19 19 19 18 17 16 15 14 14 13 12 12 13 12 11 12 12 13 13 13 15 15 15 15 14 15 15 14 14 15 16 15 17 18 19 21 24 24 23 30
18 17 18 18 18 18 17 16 14 13 12 11 11 11 12 12 13 11 11 10 11 12 14 15 15 14 14 14 14 14 14 14 16 16 16 17 19 21 23 25 24 23 24
19 18 18 17 17 17 16 15 14 13 12 11 11 11 12 12 11 10 10 10 11 12 11 12 13 13 13 14 14 15 14 14 15 16 16 18 19 21 23 25 25 26 25
17 17 17 18 19 19 18 17 15 14 13 12 11 11 11 11 11 11 11 12 12 12 11 10 10 11 12 12 13 13 15 16 16 16 16 18 20 22 23 25 25 25 27
19 18 17 18 18 18 18 17 16 15 14 13 13 12 11 12 11 12 12 13 13 11 10 9 9 9 10 11 11 12 13 14 15 16 18 20 21 23 24 25 25 22 25
19 20 20 19 19 19 18 17 15 13 12 12 13 12 11 11 13 13 13 15 16 15 11 8 6 5 6 7 8 10 11 13 16 18 19 21 23 24 25 26 28 25 27
19 18 18 19 20 20 19 18 16 13 12 13 13 12 12 11 13 13 14 17 18 18 8 7 5 5 5 6 9 12 12 14 16 18 20 21 23 25 26 27 27 29 27
18 18 17 18 19 19 19 19 20 19 17 15 14 14 13 11 12 13 17 19 21 21 18 8 5 5 7 8 10 13 15 17 18 19 19 21 22 25 25 27 28 27 27
15 16 17 17 17 18 19 20 20 21 21 21 21 22 20 22 23 23 23 23 23 23 22 20 17 14 13 13 15 16 17 16 16 17 18 20 21 22 23 24 26 27 28
12 13 14 15 16 16 17 18 19 19 19 19 19 20 21 21 22 22 23 22 22 21 20 20 19 18 17 16 15 14 13 13 14 15 16 17 19 20 19 21 22 23 26
7 8 10 11 13 14 15 15 16 17 17 17 17 17 18 19 21 21 19 19 19 18 17 15 14 13 12 10 10 10 10 11 12 13 14 15 17 18 18 18 19 21 22
3 3 4 4 5 7 8 9 10 13 13 12 13 12 12 13 15 14 13 12 12 11 10 8 7 7 6 7 8 8 9 10 10 11 13 13 14 15 17 18 18 18 20
5 5 4 3 2 1 2 3 3 3 5 10 3 7 10 7 3 7 6 5 4 4 3 2 2 2 2 5 7 8 9 9 10 10 11 12 13 14 15 17 17 17 18
11 12 12 10 10 9 8 7 6 7 10 9 5 6 5 8 7 3 2 1 2 2 6 5 5 6 6 7 8 10 11 11 11 10 11 11 11 13 13 15 16 17 17
15 15 16 18 19 18 16 16 17 16 16 16 14 13 14 15 15 12 10 9 10 9 12 11 11 11 11 12 12 13 14 13 13 12 12 12 11 12 14 12 13 14 15
18 19 20 19 18 22 25 23 22 23 22 23 23 23 21 20 19 19 16 17 18 18 17 18 17 17 16 16 16 16 16 15 15 15 14 13 12 13 14 13 12 13 12
19 22 23 24 25 24 23 25 30 29 29 30 29 28 26 24 24 24 23 23 23 24 24 23 22 21 20 19 19 18 18 18 18 18 17 16 15 14 15 13 13 12 11
18 20 21 24 25 26 27 27 29 29 36 36 34 31 28 29 29 29 28 28 28 28 27 26 25 24 22 22 21 20 20 20 19 18 18 17 16 17 15 15 14 13 12
19 19 20 23 24 27 28 29 30 31 31 36 41 37 33 34 34 34 33 31 31 30 29 28 27 25 23 22 21 21 21 21 20 19 18 17 17 16 15 14 13 13 12
17 18 20 25 27 29 30 31 32 33 33 32 32 33 36 38 40 39 37 36 34 33 31 30 29 28 26 25 23 22 23 23 22 20 17 16 16 16 15 15 14 15 14
18 19 23 26 31 31 32 33 32 33 33 33 33 34 34 36 37 37 38 40 38 36 34 32 32 33 31 29 26 25 21 20 19 18 17 17 17 16 15 16 16 16 16
19 20 23 26 28 30 32 33 34 33 32 32 34 30 31 34 34 35 34 33 34 36 35 32 30 32 29 25 24 23 21 19 18 17 17 16 15 15 15 15 15 16 16
18 19 21 24 26 28 30 32 33 32 31 31 31 31 32 30 30 31 33 35 34 32 31 30 30 29 27 24 22 22 21 20 19 18 17 17 17 17 16 16 17 18 16
Wind_Direction
319 309 298 291 290 288 293 292 289 287 283 281 279 279 280 289 294 292 299 300 301 301 310 313 315 324 324 327 330 332 315 319 321 341 350 354 359 3 7 7 6 355 355
320 320 320 314 304 296 293 289 288 287 286 286 286 286 289 294 295 300 303 307 311 314 316 321 332 331 329 336 353 337 341 340 346 340 352 2 5 5 12 5 4 360 354
320 323 323 323 320 314 308 304 301 298 295 297 299 301 301 303 306 306 315 315 319 320 323 325 320 324 330 320 331 340 345 351 359 8 22 16 14 2 5 4 4 1 357
308 328 334 330 327 324 318 314 314 310 308 307 310 312 315 317 318 322 322 326 326 331 334 331 330 332 335 341 343 350 15 16 31 44 36 24 18 12 4 358 355 1 357
317 312 328 330 334 338 336 330 334 333 328 330 327 328 327 326 321 323 327 334 332 334 333 334 339 344 349 348 353 358 11 34 42 41 31 26 9 5 2 353 1 4 16
336 342 342 334 336 340 338 335 344 343 339 338 338 338 338 341 343 343 348 348 348 344 344 345 349 355 2 7 6 10 21 37 38 31 27 21 8 11 4 360 8 10 10
348 355 3 2 2 4 5 1 1 3 356 351 348 349 346 346 357 11 11 8 2 358 358 353 354 359 16 25 24 22 24 19 21 28 25 14 17 1 6 15 18 20 17
56 28 8 8 17 20 17 10 6 10 13 10 7 2 359 352 359 18 20 23 25 12 5 16 16 10 31 39 35 23 20 18 13 17 23 23 16 16 22 21 21 29 28
106 84 56 43 29 23 18 16 10 8 3 2 2 7 16 20 37 43 43 54 60 53 20 299 300 345 352 11 16 25 19 18 21 26 26 25 22 17 16 18 16 27 21
113 115 104 83 62 46 34 24 16 17 10 20 23 23 34 31 40 42 53 75 83 76 5 356 330 331 308 337 27 41 36 33 33 30 35 29 22 18 19 26 26 23 26
117 114 106 95 84 78 74 71 68 67 54 45 39 37 32 34 41 52 77 89 97 100 93 81 267 43 10 18 30 43 54 69 61 51 40 33 28 26 29 29 31 32 32
112 114 118 123 128 125 120 123 124 119 111 106 107 122 159 151 139 132 127 127 124 118 118 103 86 71 67 66 76 74 73 60 52 44 37 32 31 34 36 35 33 33 34
114 124 126 130 128 124 121 121 117 117 122 122 120 127 133 146 152 148 137 129 122 115 110 112 105 98 93 87 82 75 61 52 44 39 37 36 35 35 39 35 35 36 34
119 116 117 127 134 137 136 130 128 129 125 127 129 127 127 135 145 141 128 121 117 110 104 96 92 87 78 68 56 45 34 32 32 31 31 28 25 25 31 32 31 31 30
157 145 135 105 116 122 130 130 133 144 134 127 132 119 115 124 133 123 116 115 113 105 90 76 70 59 50 38 21 16 14 15 15 14 11 13 17 19 19 20 22 23 23
265 258 247 263 260 257 181 167 155 146 139 152 97 128 141 333 36 124 118 108 99 93 25 65 78 40 20 354 348 347 347 349 348 350 352 358 1 6 10 10 15 17 19
268 283 282 280 282 277 277 270 255 284 290 293 276 294 292 301 303 291 271 265 223 253 296 288 293 297 304 308 314 319 323 324 329 330 333 340 348 350 354 358 3 6 8
265 272 273 278 278 278 276 277 281 280 279 282 279 278 283 285 286 286 282 284 284 270 286 281 279 286 289 293 295 299 306 311 312 313 316 319 325 331 334 340 348 355 359
275 274 273 272 267 275 277 276 275 276 276 280 282 282 280 279 279 279 276 277 281 282 282 287 285 286 288 291 293 295 296 297 301 303 304 301 306 313 317 322 329 337 347
276 279 279 275 275 272 270 272 275 275 275 276 276 277 279 277 276 276 275 275 278 282 284 286 288 287 286 288 291 291 291 292 294 295 297 297 297 298 303 307 312 317 325
284 284 280 280 276 273 273 271 273 275 275 276 276 277 273 273 274 275 275 276 278 281 282 282 284 285 286 287 288 287 286 288 288 290 291 291 290 291 294 299 302 307 314
290 286 283 281 280 277 275 275 276 276 276 276 277 277 275 274 275 275 276 277 279 281 283 284 285 284 283 282 283 285 285 286 287 287 288 288 286 286 289 290 292 298 302
297 291 289 288 286 285 283 280 278 279 280 280 279 278 276 275 276 277 278 279 279 280 281 282 284 285 285 283 281 281 283 284 285 285 282 280 280 281 282 282 284 289 291
300 297 296 295 292 289 287 286 285 283 282 282 283 283 282 278 277 277 278 279 280 281 282 283 283 283 284 283 282 281 279 282 281 278 277 278 280 278 276 279 279 281 287
303 299 297 296 295 292 291 290 289 289 288 287 286 286 290 292 280 278 278 278 279 280 281 281 282 283 281 277 277 277 275 272 273 277 277 276 274 271 270 272 274 279 283
311 307 305 302 300 297 296 294 292 292 293 292 292 291 292 297 292 284 282 282 282 282 282 283 283 282 280 278 275 274 273 271 271 271 274 274 275 274 272 270 273 277 274